Theta_e
338 337 335 334 334 334 332 328 327 325 325 323 323 324 325 327 327 327 326 326 326 327 327 328 328 328 325 327 327 325 325 324 324 322 323 323 321 320 319 319 318 319
337 337 336 334 334 333 331 329 327 326 326 327 325 325 327 328 326 327 325 326 326 326 327 325 326 327 326 326 327 325 323 324 323 321 322 322 320 319 318 318 318 318
335 335 332 332 329 328 326 327 328 326 324 325 326 327 326 327 327 328 327 327 325 324 326 326 326 326 325 327 326 323 323 323 322 321 323 321 320 320 320 319 318 317
334 333 331 329 328 327 327 327 327 327 327 325 326 325 326 326 327 326 327 326 326 325 325 325 325 324 325 325 325 322 323 322 322 324 323 322 321 320 320 320 320 318
331 331 330 329 328 328 328 326 324 324 326 327 326 327 327 327 327 325 326 325 327 325 326 325 325 324 325 324 324 321 320 319 322 324 323 322 323 322 320 321 321 318
333 333 332 329 327 326 323 324 324 326 325 324 325 326 327 327 326 327 326 326 324 323 323 323 323 323 324 323 322 322 320 319 322 324 322 323 322 322 321 322 322 319
332 331 329 328 326 324 322 323 325 326 325 326 327 327 326 325 325 326 326 325 324 325 324 325 326 325 325 325 325 323 322 322 323 324 323 322 323 322 322 322 323 321
330 329 328 327 325 324 323 323 324 325 325 326 325 327 328 324 325 325 326 325 324 324 324 324 326 327 324 324 323 322 321 318 320 323 323 322 323 323 323 322 323 322
326 327 325 325 323 324 324 323 324 325 327 325 324 326 327 326 326 325 328 326 326 326 326 325 325 325 326 326 325 324 323 321 320 321 322 320 320 321 321 323 322 322
324 325 326 324 324 324 324 324 324 325 326 325 327 327 325 327 328 330 331 330 328 327 326 328 327 325 325 326 324 324 324 323 323 323 321 321 320 320 321 323 323 321
324 326 326 325 325 325 325 324 325 324 325 325 326 326 327 328 329 332 331 329 326 326 326 327 327 326 325 324 324 324 324 323 324 324 322 322 321 321 321 322 322 321
326 328 326 325 324 324 325 325 325 325 325 324 326 326 328 328 328 329 328 327 326 326 326 327 328 327 327 327 326 325 324 324 324 324 322 321 322 321 321 322 321 321
326 325 325 324 323 324 325 325 325 324 325 325 327 327 327 326 325 328 327 326 327 326 326 327 327 327 328 328 326 326 325 325 324 324 324 322 321 322 322 322 321 320
325 324 324 324 325 326 326 325 325 326 326 328 328 329 327 326 324 325 325 327 327 327 328 331 330 328 328 329 328 327 326 326 326 325 324 323 323 322 322 323 323 321
325 325 324 325 326 326 326 325 325 326 328 328 328 328 327 328 327 326 325 326 328 328 329 330 330 328 328 327 327 327 328 328 327 324 325 324 323 322 323 323 323 321
325 326 325 325 326 325 326 327 326 327 326 327 328 329 330 330 329 329 328 326 328 328 329 327 326 326 328 326 328 329 328 328 328 327 327 326 325 324 323 323 322 321
325 326 327 326 326 325 327 327 327 327 328 328 328 329 330 330 330 330 329 327 327 327 326 325 325 326 327 327 328 328 330 329 328 327 327 327 325 325 323 323 321 322
324 326 326 325 326 326 327 327 326 326 326 328 328 329 330 330 329 328 329 329 329 329 327 326 327 328 328 328 329 329 329 330 328 327 325 324 323 323 322 322 322 322
326 325 326 326 326 326 327 325 327 325 326 326 326 329 330 328 329 328 328 329 329 329 328 327 327 333 329 328 330 330 331 331 327 327 326 325 324 324 323 323 323 322
325 325 325 325 326 325 325 324 325 325 325 325 326 329 329 329 328 328 328 329 329 329 329 329 328 332 328 328 330 330 330 332 329 327 326 326 326 326 324 324 324 322
326 325 324 325 326 325 325 323 323 324 324 325 325 327 328 328 327 327 327 329 329 328 328 327 328 331 329 329 329 329 329 332 330 327 326 326 325 325 327 326 325 321
327 326 325 325 325 325 323 323 323 324 324 325 325 326 326 328 328 328 327 328 329 329 329 327 328 330 329 330 330 330 329 331 329 327 327 327 326 326 327 328 327 324
328 326 325 325 324 323 324 322 323 324 324 326 325 324 326 327 328 327 329 328 329 329 329 329 328 329 327 329 330 328 331 330 329 327 327 326 324 325 326 327 326 326
329 327 326 325 324 324 323 323 323 325 324 325 324 324 325 325 327 327 328 329 328 328 328 328 328 327 329 328 326 327 331 329 329 326 326 325 324 325 326 326 327 323
328 328 328 326 325 324 322 323 325 324 325 325 325 326 327 328 328 327 327 329 329 329 327 329 329 329 326 326 325 326 331 331 328 326 325 324 323 324 326 325 326 326
329 328 328 327 326 325 324 323 325 324 325 325 326 327 326 327 328 327 327 328 329 329 328 329 330 330 330 325 325 326 327 333 330 325 324 323 324 323 323 325 325 326
Wind_Speed
9 8 8 7 6 5 5 5 4 4 3 4 4 4 3 4 4 4 5 5 4 4 4 4 3 3 4 4 5 5 5 6 5 6 6 6 6 7 7 8 8 6
9 8 7 6 6 5 5 5 4 4 4 2 4 4 4 4 3 3 3 3 4 5 5 5 5 4 5 5 5 5 5 5 6 5 6 7 6 7 8 8 8 8
9 9 9 8 7 8 7 6 5 5 5 4 4 4 4 4 4 3 2 3 4 5 4 5 5 5 5 5 5 6 5 5 6 6 5 6 6 6 8 8 8 9
10 9 8 8 8 8 7 6 6 4 5 5 5 4 3 4 4 4 3 2 4 5 5 5 6 6 6 5 4 4 5 5 6 5 5 5 6 6 8 8 8 9
11 8 7 7 7 7 6 7 7 6 5 4 5 5 4 4 4 4 3 4 3 4 4 5 6 7 6 5 4 4 5 6 5 5 5 6 6 6 6 8 9 10
8 7 7 8 8 8 8 7 7 6 6 7 6 4 4 3 2 2 2 3 4 3 4 5 5 6 6 6 6 6 6 6 6 5 6 6 7 7 6 7 9 10
10 8 9 8 9 8 8 8 8 7 6 5 5 5 4 4 3 3 2 3 3 4 5 5 4 4 4 4 4 4 4 5 5 5 6 6 6 7 8 8 8 9
10 9 9 8 8 8 8 9 8 6 7 7 7 6 4 5 4 4 3 3 4 5 5 5 4 3 4 5 5 4 3 3 5 4 4 5 4 6 7 7 8 8
10 9 10 10 10 8 9 9 9 8 7 7 8 7 6 5 4 5 3 3 5 5 4 4 4 3 3 4 3 3 4 5 5 4 5 5 6 7 7 7 8 8
11 10 11 10 10 9 9 9 9 7 7 7 6 5 6 5 4 3 3 3 4 4 5 4 3 3 2 2 1 3 3 2 4 4 5 5 5 6 7 6 7 8
11 11 11 11 10 9 9 9 8 7 7 7 6 6 5 5 4 3 3 3 3 5 5 4 3 3 2 3 2 3 3 4 4 5 5 5 5 5 5 6 7 7
11 11 11 11 10 10 9 8 7 7 6 7 5 5 4 4 3 3 2 2 2 3 4 4 3 2 3 3 3 3 3 4 4 5 5 5 4 6 5 6 7 7
11 11 10 10 10 9 8 7 7 7 6 6 5 4 4 4 4 2 1 3 1 1 3 3 2 3 2 2 2 2 3 4 4 5 5 6 7 5 5 5 7 6
10 11 10 9 8 9 8 7 6 6 6 5 4 4 4 4 3 4 5 3 2 2 2 2 1 1 1 1 2 3 4 4 4 5 5 5 7 6 4 4 5 5
9 9 9 9 8 8 8 7 6 6 5 5 4 4 3 2 3 3 1 1 2 1 1 1 2 2 3 5 5 4 4 4 4 5 5 6 6 7 5 3 4 4
9 8 9 9 9 8 7 6 6 6 6 5 5 4 3 3 3 3 4 3 3 3 2 2 1 2 6 2 5 5 5 4 4 4 4 4 5 5 5 2 3 5
9 9 9 9 8 8 7 7 6 6 5 5 4 4 3 3 4 3 4 1 2 2 2 1 1 6 5 1 3 6 6 5 4 5 3 4 4 5 4 3 3 3
9 9 9 9 8 8 8 7 7 6 6 6 5 4 4 5 4 4 3 3 2 2 3 2 1 7 2 1 4 5 7 6 5 5 5 4 4 5 4 4 3 3
8 9 9 9 9 8 8 8 7 7 7 6 6 5 4 4 4 4 3 3 2 3 2 3 3 10 3 1 4 5 6 7 5 5 5 4 4 5 4 2 3 2
8 9 9 9 9 9 8 8 8 7 7 6 5 5 4 4 5 5 4 4 4 3 2 2 4 9 2 2 3 4 6 7 6 5 5 3 2 3 3 2 2 3
8 9 9 9 9 9 9 8 8 7 7 6 6 6 6 5 5 5 4 4 4 3 3 3 1 7 2 1 1 3 4 6 6 5 5 3 2 1 1 2 2 3
8 9 9 9 9 9 9 9 8 8 7 6 5 6 5 4 5 5 4 4 3 3 3 3 1 7 3 2 2 3 5 6 5 4 4 3 2 2 2 2 3 3
8 8 8 8 8 9 9 9 9 8 8 6 7 6 5 5 5 5 3 4 3 3 4 3 4 4 5 3 2 3 6 5 5 4 4 3 2 2 2 3 4 3
8 8 8 8 8 9 8 8 8 8 8 7 7 6 6 5 4 4 4 4 3 3 3 4 5 2 4 4 4 3 6 6 4 4 4 3 3 3 2 3 4 5
8 8 7 7 8 8 8 8 8 8 8 7 7 7 6 5 6 4 3 3 3 3 5 6 5 5 3 6 5 4 5 5 4 5 4 3 3 3 3 4 4 7
8 8 8 6 7 8 8 8 7 8 8 7 7 7 7 6 4 4 4 4 3 4 4 5 6 6 3 6 6 5 5 6 5 5 4 3 4 4 4 4 4 4
Wind_Direction
160 172 166 168 154 143 147 152 157 134 124 160 141 99 89 81 82 81 79 64 43 51 53 46 46 45 74 66 46 45 51 34 30 44 35 23 36 34 35 30 28 14
168 164 160 145 132 144 147 148 144 134 136 113 110 123 120 135 126 107 89 102 101 76 57 61 55 53 52 55 52 53 38 30 40 34 29 25 32 27 28 23 23 13
161 162 161 153 152 156 152 140 135 147 153 134 120 132 135 123 105 96 83 56 64 81 84 80 73 55 58 66 60 58 49 36 33 38 27 28 20 32 22 21 10 14
162 172 162 151 147 149 141 145 150 135 128 151 147 124 117 109 127 106 105 110 85 71 68 66 61 58 58 63 70 80 77 61 44 30 28 31 29 21 26 20 10 14
163 164 154 145 149 145 148 149 150 143 156 118 126 132 130 137 141 135 123 112 144 122 110 93 75 69 61 61 70 83 72 68 55 44 33 28 33 23 29 18 10 14
155 148 145 150 155 157 150 153 141 143 141 165 140 138 122 152 123 114 127 151 131 107 95 78 78 76 73 70 60 48 49 54 52 34 46 38 29 24 20 19 10 11
146 146 152 158 163 155 152 137 133 148 166 128 129 127 134 120 121 127 158 99 82 87 85 86 65 71 86 86 82 91 91 80 61 40 29 38 29 28 24 15 16 10
144 148 158 164 154 147 140 138 145 147 131 142 135 128 133 129 134 159 134 133 113 92 89 85 89 57 52 54 56 41 43 67 64 43 29 48 29 19 30 12 13 10
146 156 163 158 147 145 138 139 137 138 149 133 125 134 134 130 142 109 119 92 93 100 101 94 76 78 62 55 49 49 37 29 35 30 25 19 25 22 24 13 12 9
155 162 164 155 148 144 145 142 138 142 132 125 127 120 114 102 101 119 125 129 124 117 101 98 90 68 80 110 76 29 13 17 33 4 18 360 21 11 15 8 12 5
159 161 162 155 152 149 152 144 152 145 146 136 138 127 123 128 137 138 134 157 132 113 105 99 87 67 36 41 24 43 8 358 16 1 12 4 8 10 12 6 11 8
157 159 160 160 158 155 157 159 167 154 156 144 142 135 149 154 143 161 155 107 97 115 102 93 99 106 57 12 11 25 11 359 14 359 0 358 25 5 5 8 5 7
160 162 161 163 164 159 163 167 175 167 168 147 154 157 181 180 158 181 237 126 174 86 92 78 56 51 29 43 17 40 6 5 6 2 3 360 359 44 351 15 2 4
164 162 163 163 162 158 166 175 173 163 173 154 164 186 197 203 177 191 182 191 174 157 110 133 91 341 88 349 28 358 351 30 3 351 355 11 348 14 23 10 356 5
158 159 157 157 153 160 171 180 171 163 181 172 186 196 208 227 243 244 325 246 153 258 141 140 226 197 58 358 348 356 355 359 341 349 4 356 358 354 22 357 353 3
158 157 152 155 156 166 171 177 179 172 182 185 182 213 198 215 212 241 230 209 217 192 206 217 232 52 85 345 313 319 328 335 340 342 354 348 345 346 360 339 33 357
158 154 158 157 164 168 171 180 179 178 187 186 202 204 210 204 233 211 266 312 296 287 262 260 324 74 80 302 283 294 304 318 326 325 0 315 342 340 356 343 12 6
161 156 160 162 169 171 175 179 182 188 190 193 201 194 209 214 212 220 233 252 250 303 306 322 333 96 125 208 283 289 287 300 311 319 332 329 5 332 355 358 4 347
162 163 165 169 173 176 182 179 187 191 191 200 202 208 204 214 226 225 219 233 246 245 259 302 308 99 106 326 294 286 284 280 301 318 317 330 345 334 351 359 343 322
168 169 172 174 178 184 184 188 192 193 202 197 203 209 217 224 228 220 225 243 251 259 265 272 275 82 79 334 307 298 290 279 293 296 284 304 325 319 332 353 344 305
172 172 177 178 183 190 191 198 194 202 204 207 203 209 219 234 243 245 247 248 248 256 277 281 66 106 133 248 304 282 295 275 288 302 305 315 308 342 292 292 274 282
171 175 182 183 190 194 196 200 198 209 209 208 224 237 211 199 233 258 257 256 257 266 271 285 5 134 173 193 253 271 290 284 292 289 284 283 281 264 251 249 247 268
173 174 181 185 190 193 200 200 203 209 214 213 222 229 236 237 241 244 249 251 250 251 280 294 295 147 171 203 247 271 279 288 293 289 267 263 268 263 238 236 243 235
181 183 182 186 185 192 197 204 208 211 212 216 224 232 242 254 268 256 239 256 262 278 283 292 300 302 177 205 230 242 278 293 295 279 272 270 262 254 263 267 242 222
187 189 192 193 193 198 203 204 207 212 214 211 221 235 237 246 250 242 245 236 244 266 286 288 294 304 219 210 221 224 260 285 283 284 281 263 260 248 240 259 242 215
185 188 198 201 201 203 209 208 205 212 214 218 222 235 235 227 233 250 241 264 263 257 265 279 292 300 305 180 206 214 236 273 280 273 262 261 265 277 272 250 256 258